FW3933 Weather Reports


Display with metric or nautical units.
time (UTC)temp
F
wind
direction
speed
MPH
gust
MPH
rain 1hr
in
rain 24hr
in
rain mn
in
humidity
%
barometer
mb
20260503020539 64 284 0.0 3.0 0.00 0.00 0.00 55 1014.0
20260503020040 64 284 0.0 3.0 0.00 0.00 0.00 55 1014.0
20260503015540 65 288 0.0 7.0 0.00 0.00 0.00 55 1014.0
20260503015039 65 223 0.0 7.0 0.00 0.00 0.00 54 1014.1
20260503014549 66 213 1.0 7.0 0.00 0.00 0.00 53 1014.1
20260503014039 66 233 0.0 7.0 0.00 0.00 0.00 52 1014.1
20260503013541 66 284 0.0 3.0 0.00 0.00 0.00 55 1014.0
20260503013041 67 176 0.0 5.0 0.00 0.00 0.00 52 1014.0
20260503012543 67 176 0.0 5.0 0.00 0.00 0.00 53 1014.0
20260503012039 66 256 0.0 5.0 0.00 0.00 0.00 53 1014.0
20260503011539 67 178 1.0 5.0 0.00 0.00 0.00 51 1014.0
20260503011039 67 203 0.0 7.0 0.00 0.00 0.00 50 1014.0
20260503010539 68 168 0.0 7.0 0.00 0.00 0.00 51 1014.0
20260503010050 68 168 0.0 7.0 0.00 0.00 0.00 51 1014.0
20260503005549 69 157 4.0 7.0 0.00 0.00 0.00 49 1014.0
20260503005050 69 95 0.0 6.0 0.00 0.00 0.00 49 1014.0
20260503004558 70 3 0.0 6.0 0.00 0.00 0.00 47 1014.1
20260503004049 70 107 0.0 4.0 0.00 0.00 0.00 48 1014.0
20260503003549 70 99 0.0 6.0 0.00 0.00 0.00 47 1014.0
20260503003051 70 97 0.0 7.0 0.00 0.00 0.00 49 1014.0
20260503002554 71 95 2.0 7.0 0.00 0.00 0.00 45 1013.9
20260503002048 71 102 1.0 6.0 0.00 0.00 0.00 46 1013.9
20260503001552 71 92 1.0 9.0 0.00 0.00 0.00 46 1014.0
20260503001052 71 87 2.0 7.0 0.00 0.00 0.00 47 1014.0
20260503000548 71 103 3.0 9.0 0.00 0.00 0.00 51 1014.0
20260503000050 71 105 2.0 9.0 0.00 0.00 0.00 52 1014.0
20260502235545 71 103 3.0 9.0 0.00 0.00 0.00 50 1014.0
20260502235045 71 91 3.0 9.0 0.00 0.00 0.00 49 1014.0
20260502234554 71 101 2.0 11.0 0.00 0.00 0.00 49 1014.0
20260502234045 71 107 5.0 12.0 0.00 0.00 0.00 46 1014.0
20260502233547 71 86 6.0 12.0 0.00 0.00 0.00 45 1014.0
20260502233044 71 96 4.0 9.0 0.00 0.00 0.00 45 1014.1
20260502232544 72 92 3.0 13.0 0.00 0.00 0.00 46 1014.0
20260502232044 72 111 4.0 13.0 0.00 0.00 0.00 47 1014.0
20260502231544 72 80 5.0 13.0 0.00 0.00 0.00 44 1014.1
20260502231045 72 108 3.0 12.0 0.00 0.00 0.00 42 1014.1
20260502230544 72 101 6.0 13.0 0.00 0.00 0.00 43 1014.2
20260502230036 72 99 5.0 13.0 0.00 0.00 0.00 43 1014.2
20260502225538 73 75 4.0 10.0 0.00 0.00 0.00 41 1014.3
20260502225034 73 101 3.0 11.0 0.00 0.00 0.00 39 1014.4
20260502224534 73 106 6.0 11.0 0.00 0.00 0.00 40 1014.4
20260502224033 74 105 3.0 11.0 0.00 0.00 0.00 38 1014.5
20260502223533 74 94 4.0 13.0 0.00 0.00 0.00 36 1014.5
20260502223040 74 92 6.0 13.0 0.00 0.00 0.00 36 1014.6
20260502222533 74 101 4.0 12.0 0.00 0.00 0.00 38 1014.6
20260502222032 74 99 5.0 12.0 0.00 0.00 0.00 35 1014.6
20260502221532 75 74 5.0 10.0 0.00 0.00 0.00 35 1014.7
20260502221031 74 100 5.0 13.0 0.00 0.00 0.00 37 1014.8
20260502220531 75 92 2.0 9.0 0.00 0.00 0.00 35 1014.7
20260502220036 75 92 2.0 9.0 0.00 0.00 0.00 35 1014.7
20260502215532 75 92 3.0 9.0 0.00 0.00 0.00 38 1014.8
20260502215030 74 90 3.0 9.0 0.00 0.00 0.00 35 1014.8
20260502214530 74 89 5.0 10.0 0.00 0.00 0.00 35 1014.8
20260502214029 74 117 3.0 10.0 0.00 0.00 0.00 35 1014.9
20260502213529 74 96 3.0 10.0 0.00 0.00 0.00 38 1014.9
20260502213029 74 101 4.0 11.0 0.00 0.00 0.00 38 1014.9
20260502212529 74 119 4.0 11.0 0.00 0.00 0.00 35 1015.0
20260502212027 74 101 3.0 10.0 0.00 0.00 0.00 37 1015.0
20260502211534 74 99 5.0 10.0 0.00 0.00 0.00 38 1015.1
20260502211028 74 97 3.0 9.0 0.00 0.00 0.00 42 1015.1
20260502210527 75 93 2.0 9.0 0.00 0.00 0.00 36 1015.2
20260502210027 75 92 1.0 9.0 0.00 0.00 0.00 37 1015.2
20260502205526 75 95 2.0 9.0 0.00 0.00 0.00 38 1015.3
20260502205025 74 88 2.0 10.0 0.00 0.00 0.00 38 1015.3
20260502204536 74 108 2.0 10.0 0.00 0.00 0.00 37 1015.3
20260502204027 74 77 2.0 8.0 0.00 0.00 0.00 37 1015.4
20260502203526 73 109 4.0 11.0 0.00 0.00 0.00 37 1015.4
20260502203035 73 95 5.0 11.0 0.00 0.00 0.00 38 1015.5
20260502202523 74 103 3.0 11.0 0.00 0.00 0.00 36 1015.5
20260502202024 73 88 5.0 11.0 0.00 0.00 0.00 36 1015.5
20260502201525 73 98 4.0 11.0 0.00 0.00 0.00 36 1015.6
20260502201024 73 101 4.0 14.0 0.00 0.00 0.00 37 1015.6
20260502200624 73 96 5.0 13.0 0.00 0.00 0.00 34 1015.6
20260502200026 73 108 5.0 13.0 0.00 0.00 0.00 34 1015.7
20260502195525 73 96 5.0 11.0 0.00 0.00 0.00 39 1015.7
20260502195023 73 83 2.0 8.0 0.00 0.00 0.00 45 1015.7
20260502194528 73 106 4.0 8.0 0.00 0.00 0.00 43 1015.7
20260502194022 73 99 0.0 7.0 0.00 0.00 0.00 49 1015.8
20260502193520 71 90 2.0 8.0 0.00 0.00 0.00 48 1015.9
20260502193020 71 107 3.0 8.0 0.00 0.00 0.00 47 1015.9
20260502192518 70 94 1.0 7.0 0.00 0.00 0.00 50 1016.0
20260502192016 69 93 0.0 7.0 0.00 0.00 0.00 51 1016.0
20260502191516 70 93 0.0 5.0 0.00 0.00 0.00 51 1016.1
20260502191015 69 94 0.0 5.0 0.00 0.00 0.00 51 1016.1
20260502190515 68 95 1.0 6.0 0.00 0.00 0.00 53 1016.1
20260502190018 68 95 3.0 6.0 0.00 0.00 0.00 54 1016.1
20260502185512 69 97 2.0 9.0 0.00 0.00 0.00 49 1016.1
20260502185012 68 96 3.0 9.0 0.00 0.00 0.00 48 1016.2
20260502184512 68 95 2.0 8.0 0.00 0.00 0.00 47 1016.2
20260502184012 69 93 2.0 7.0 0.00 0.00 0.00 50 1016.2
20260502183512 68 97 0.0 7.0 0.00 0.00 0.00 52 1016.2
20260502183011 68 101 1.0 7.0 0.00 0.00 0.00 48 1016.2
20260502182514 68 98 0.0 6.0 0.00 0.00 0.00 48 1016.3
20260502182009 68 102 3.0 6.0 0.00 0.00 0.00 44 1016.2
20260502181509 67 106 2.0 5.0 0.00 0.00 0.00 49 1016.3
20260502181008 67 99 1.0 5.0 0.00 0.00 0.00 49 1016.4
20260502180508 66 104 0.0 5.0 0.00 0.00 0.00 52 1016.3
20260502164054 61 272 0.0 0.0 0.00 0.00 0.00 76 1016.6
20260502163553 61 272 0.0 0.0 0.00 0.00 0.00 75 1016.5
20260502163106 61 272 0.0 0.0 0.00 0.00 0.00 75 1016.5
20260502162554 61 272 0.0 0.0 0.00 0.00 0.00 76 1016.5
20260502162052 61 272 0.0 0.0 0.00 0.00 0.00 76 1016.5
20260502161618 61 192 0.0 0.0 0.00 0.00 0.00 75 1016.4
20260502161051 61 172 0.0 0.0 0.00 0.00 0.00 75 1016.5
20260502160551 61 141 0.0 0.0 0.00 0.00 0.00 73 1016.5
20260502152043 57 141 0.0 0.0 0.00 0.00 0.00 85 1016.2
20260502151542 57 141 0.0 0.0 0.00 0.00 0.00 85 1016.3
20260502151042 57 86 0.0 2.0 0.00 0.00 0.00 85 1016.2
20260502150544 57 87 0.0 3.0 0.00 0.00 0.00 86 1016.3
20260502130537 54 226 0.0 0.0 0.00 0.00 0.00 88 1015.5
20260502123534 54 232 0.0 0.0 0.00 0.00 0.00 85 1015.5
20260502123059 54 232 0.0 0.0 0.00 0.00 0.00 85 1015.6
20260502122534 54 232 0.0 0.0 0.00 0.00 0.00 85 1015.6
20260502122033 54 232 0.0 0.0 0.00 0.00 0.00 85 1015.5
20260502121533 55 232 0.0 0.0 0.00 0.00 0.00 86 1015.4
20260502121035 55 232 0.0 0.0 0.00 0.00 0.00 88 1015.5
20260502120532 55 193 0.0 0.0 0.00 0.00 0.00 87 1015.5
20260502115533 55 193 0.0 0.0 0.00 0.00 0.00 86 1015.5
20260502115031 55 193 0.0 0.0 0.00 0.00 0.00 87 1015.4
20260502114530 55 193 0.0 0.0 0.00 0.00 0.00 86 1015.4
20260502114031 55 193 0.0 0.0 0.00 0.00 0.00 86 1015.3
20260502113532 56 193 0.0 0.0 0.00 0.00 0.00 87 1015.3
20260502113034 56 196 0.0 0.0 0.00 0.00 0.00 88 1015.2
20260502112529 56 196 0.0 0.0 0.00 0.00 0.00 88 1015.2
20260502112028 56 196 0.0 0.0 0.00 0.00 0.00 86 1015.2
20260502111528 56 196 0.0 0.0 0.00 0.00 0.00 87 1015.3
20260502111028 56 196 0.0 0.0 0.00 0.00 0.00 86 1015.4
20260502110528 56 196 0.0 0.0 0.00 0.00 0.00 87 1015.4
20260502105528 56 196 0.0 0.0 0.00 0.00 0.00 86 1015.5
20260502105027 56 196 0.0 0.0 0.00 0.00 0.00 86 1015.4
20260502104529 56 196 0.0 0.0 0.00 0.00 0.00 86 1015.5
20260502104026 56 196 0.0 0.0 0.00 0.00 0.00 86 1015.4
20260502103528 56 196 0.0 0.0 0.00 0.00 0.00 86 1015.4
20260502103026 56 196 0.0 0.0 0.00 0.00 0.00 87 1015.4
20260502102526 56 196 0.0 0.0 0.00 0.00 0.00 86 1015.5
20260502102025 56 196 0.0 0.0 0.00 0.00 0.00 85 1015.5
20260502101524 56 196 0.0 0.0 0.00 0.00 0.00 81 1015.5
20260502101023 56 196 0.0 0.0 0.00 0.00 0.00 81 1015.6
20260502100523 56 196 0.0 0.0 0.00 0.00 0.00 80 1015.6
20260502091515 58 196 0.0 0.0 0.00 0.00 0.00 77 1016.0
20260502091014 58 196 0.0 3.0 0.00 0.00 0.00 77 1016.0
20260502090514 58 195 0.0 3.0 0.00 0.00 0.00 78 1016.0
20260502071514 61 319 1.0 6.0 0.00 0.00 0.00 78 1016.4
20260502071014 61 324 2.0 6.0 0.00 0.00 0.00 78 1016.5
20260502070517 61 308 0.0 3.0 0.00 0.00 0.00 78 1016.5
20260502065512 62 313 1.0 6.0 0.00 0.00 0.00 76 1016.4
20260502065016 62 328 1.0 5.0 0.00 0.00 0.00 75 1016.4
20260502064511 62 327 0.0 4.0 0.00 0.00 0.00 73 1016.4
20260502064013 63 254 0.0 6.0 0.00 0.00 0.00 73 1016.4
20260502063511 63 290 0.0 4.0 0.00 0.00 0.00 73 1016.4
20260502063011 63 273 0.0 4.0 0.00 0.00 0.00 70 1016.5
20260502062513 63 296 0.0 5.0 0.00 0.00 0.00 71 1016.4
20260502062012 63 271 0.0 5.0 0.00 0.00 0.00 72 1016.6
20260502061511 63 232 0.0 7.0 0.00 0.00 0.00 71 1016.6
20260502061010 63 235 0.0 5.0 0.00 0.00 0.00 71 1016.6
20260502060514 63 233 0.0 5.0 0.00 0.00 0.00 72 1016.6
20260502055514 64 280 0.0 7.0 0.00 0.00 0.00 71 1016.5
20260502055016 63 305 1.0 7.0 0.00 0.00 0.00 72 1016.5
20260502054513 63 245 0.0 5.0 0.00 0.00 0.00 71 1016.6
20260502054013 63 315 0.0 11.0 0.00 0.00 0.00 74 1016.7
20260502053513 64 198 1.0 11.0 0.00 0.00 0.00 71 1016.7
20260502053013 64 315 0.0 9.0 0.00 0.00 0.00 73 1016.7
20260502052515 64 259 1.0 11.0 0.00 0.00 0.00 71 1016.7
20260502052013 64 259 2.0 11.0 0.00 0.00 0.00 71 1016.8
20260502051519 64 185 1.0 7.0 0.00 0.00 0.00 71 1016.7
20260502051012 64 224 0.0 9.0 0.00 0.00 0.00 71 1016.7
20260502050512 64 227 0.0 9.0 0.00 0.00 0.00 71 1016.7
20260502045519 65 222 1.0 10.0 0.00 0.00 0.00 69 1016.7
20260502045016 65 192 1.0 9.0 0.00 0.00 0.00 69 1016.7
20260502044516 65 193 0.0 12.0 0.00 0.00 0.00 69 1016.6
20260502044016 65 184 2.0 11.0 0.00 0.00 0.00 69 1016.6
20260502043516 65 209 5.0 11.0 0.00 0.00 0.00 69 1016.5
20260502043016 66 165 0.0 5.0 0.00 0.00 0.00 70 1016.4
20260502042516 66 280 0.0 8.0 0.00 0.00 0.00 70 1016.4
20260502042016 66 307 1.0 8.0 0.00 0.00 0.00 71 1016.4
20260502041516 66 291 3.0 10.0 0.00 0.00 0.00 72 1016.4
20260502041015 67 313 1.0 10.0 0.00 0.00 0.00 71 1016.4
20260502040518 67 318 0.0 9.0 0.00 0.00 0.00 68 1016.4
20260502035510 68 222 0.0 7.0 0.00 0.00 0.00 65 1016.2
20260502035009 68 238 0.0 10.0 0.00 0.00 0.00 63 1016.2
20260502034509 68 220 3.0 10.0 0.00 0.00 0.00 63 1016.0
20260502034008 68 215 4.0 10.0 0.00 0.00 0.00 63 1016.0
20260502033510 68 209 4.0 11.0 0.00 0.00 0.00 63 1015.9
20260502033009 68 234 4.0 11.0 0.00 0.00 0.00 63 1015.8
20260502032508 68 215 6.0 11.0 0.00 0.00 0.00 63 1015.8
20260502032008 69 213 4.0 10.0 0.00 0.00 0.00 63 1015.7
20260502031508 69 259 3.0 9.0 0.00 0.00 0.00 63 1015.7
20260502031008 69 272 1.0 5.0 0.00 0.00 0.00 64 1015.7
20260502030508 69 257 0.0 9.0 0.00 0.00 0.00 64 1015.8
20260502025517 70 319 2.0 9.0 0.00 0.00 0.00 60 1015.7
20260502025010 70 278 0.0 8.0 0.00 0.00 0.00 58 1015.6
20260502024514 71 242 2.0 14.0 0.00 0.00 0.00 58 1015.6
20260502024009 71 211 3.0 14.0 0.00 0.00 0.00 56 1015.5
20260502023509 71 222 6.0 13.0 0.00 0.00 0.00 54 1015.4
20260502023011 72 231 0.0 12.0 0.00 0.00 0.00 53 1015.5
20260502022508 72 220 3.0 13.0 0.00 0.00 0.00 52 1015.5
20260502022008 72 216 4.0 13.0 0.00 0.00 0.00 51 1015.5
20260502021508 73 170 4.0 11.0 0.00 0.00 0.00 50 1015.4
20260502021009 73 171 4.0 11.0 0.00 0.00 0.00 47 1015.4